HULIANWANG DIGUI-103 (66419 NORAD) Tracking and Keplerian Element Data

This shows tracking and keplerian element data for the satellite.

Feedback or suggestion? Click here.




ElementValue
Catalog66419
NameHULIANWANG DIGUI-103
Epoch Orbit551
Epoch Day352.7935269
Epoch Year2025
RAAN236.967
Inclination50.0015
Eccentricity0.0001364
Argument of Perigee4.6775
Mean Anonmoly355.4146
Mean Motion14.1299511
Decay Rate1.68E-06
L11 66419U 25258H 25352.79352690 .00000168 00000+0 17251-3 0 9999
L22 66419 50.0015 236.9670 0001364 4.6775 355.4146 14.12995110 5517



Live tracking and technical data element details for HULIANWANG DIGUI-103 (NORAD 66419). HULIANWANG DIGUI-103 can be tracked NOW for your location showing map with azimuth and elevation plus other details from your city location.







IsCatalogInMostPopularTable: catalog: 66419, numindb: 4
Update: records affected: 1



GetName: 66419 HULIANWANG DIGUI-103

Hit Count: updated at: Tue, 21 Apr 2026 19:47:23 GMT